Temp
9 10 10 10 10 11 11 11 12 12 13 13 14 15 16 17 18 18 15 16 17 9 13 14 15 14 12 12 11 12 12 10 6 8 7 6 5 9 10 11 10 9 8 7 6 5 11 12 13 13 12 11 11 9
9 10 10 10 10 11 11 11 12 12 12 13 14 15 16 17 18 18 17 16 18 11 12 14 14 15 15 15 11 11 13 11 10 7 5 6 5 8 8 10 11 11 10 9 10 10 12 11 13 12 10 10 9 9
10 10 10 10 10 10 11 11 11 12 12 13 14 15 16 17 18 19 17 16 17 8 11 12 13 15 16 16 16 12 8 11 10 8 7 7 7 5 8 8 11 11 11 9 11 13 11 11 12 12 10 10 8 8
9 9 9 10 10 10 10 11 11 12 12 13 14 14 15 16 17 18 17 15 16 6 7 10 14 14 15 16 17 17 12 10 7 6 5 6 6 8 6 9 8 10 11 12 9 11 11 12 10 10 9 8 8 9
9 9 9 9 9 10 10 10 11 11 12 13 13 14 14 15 16 17 16 13 15 13 8 7 12 13 14 16 16 15 13 10 8 6 5 7 4 6 5 5 7 10 12 9 11 12 12 12 11 8 8 8 9 9
8 9 9 9 9 9 10 10 10 11 11 12 13 13 14 14 16 16 10 14 14 14 8 9 9 10 12 13 13 12 11 9 8 7 5 5 8 7 8 9 10 11 12 12 12 11 11 11 8 8 9 9 9 8
8 8 8 8 9 9 9 9 10 10 11 11 12 13 14 14 15 11 10 11 13 14 6 8 6 8 9 9 7 8 8 8 9 6 5 6 7 8 7 8 11 11 11 11 11 9 9 8 8 9 9 8 7 6
8 8 8 8 8 9 9 9 9 10 10 11 11 12 12 13 13 11 11 12 13 11 5 6 6 6 9 6 7 5 6 7 7 7 6 7 6 6 8 9 10 11 11 11 9 9 10 8 8 8 7 7 6 5
6 7 8 8 8 9 9 9 9 10 10 11 11 12 12 12 9 10 11 12 13 12 6 5 7 8 6 6 4 4 5 7 6 7 6 6 7 8 10 10 11 11 11 11 8 8 8 8 7 7 6 5 4 4
5 5 6 7 8 8 9 9 9 10 10 11 12 10 4 7 8 10 11 6 5 5 4 5 5 7 7 4 5 5 4 8 8 6 7 6 8 7 8 7 8 9 9 7 7 7 6 6 6 4 4 4 4 4
5 5 5 6 7 7 8 8 8 9 10 10 6 4 7 8 9 4 6 6 7 7 6 5 5 7 5 7 6 3 6 5 9 6 8 7 7 6 6 6 6 6 6 6 7 5 4 3 2 2 3 3 4 3
4 4 5 5 6 6 6 7 8 9 8 8 7 7 8 5 4 6 7 6 6 7 5 6 5 6 4 5 6 5 6 6 7 5 7 7 6 5 5 4 4 4 3 3 2 2 2 3 3 3 3 3 3 3
5 5 5 5 5 6 6 7 8 8 8 8 6 4 6 4 8 8 9 7 7 4 4 4 5 3 4 4 5 5 7 7 4 7 7 6 5 5 4 4 3 3 3 3 3 3 4 3 3 3 3 3 3 3
4 4 5 5 5 5 6 6 6 7 7 4 5 6 6 6 5 5 5 5 3 3 3 3 4 4 3 5 4 7 5 5 7 6 4 5 4 3 3 2 3 2 1 3 3 3 3 3 3 3 3 3 3 2
4 4 5 5 5 5 6 6 6 7 5 3 3 4 3 2 2 2 2 2 2 2 2 3 3 4 4 5 4 4 5 6 5 4 4 3 2 2 3 2 2 1 1 2 3 3 3 3 3 2 3 2 2 2
5 5 4 4 5 5 6 6 7 6 3 3 3 3 3 4 3 3 3 3 2 2 2 3 4 4 4 4 4 4 5 5 4 4 2 2 2 2 1 2 2 2 2 2 2 2 2 2 2 2 3 3 3 2
4 3 4 4 5 5 5 6 4 1 1 4 3 2 2 3 3 3 2 2 2 3 4 4 1 3 3 3 4 4 4 4 3 3 1 3 3 2 2 2 2 2 2 3 2 2 2 2 2 2 2 3 3 2
2 3 4 5 5 5 4 4 1 1 2 2 3 2 1 1 2 2 1 0 0 2 2 3 2 3 3 4 4 3 3 3 2 2 1 2 3 3 3 3 3 3 3 3 2 2 2 2 2 2 2 2 1 2
2 3 4 4 4 3 1 2 2 3 2 1 1 0 1 0 -0 0 0 0 1 -0 0 -0 0 1 2 1 1 1 -0 -1 1 1 1 3 3 3 3 3 2 2 2 2 2 1 1 0 -0 -0 -1 -1 -2 -2
2 2 3 4 4 3 1 -0 2 1 1 1 1 1 0 0 -0 0 1 0 -1 -2 -0 -1 0 -0 -0 -1 -1 -2 -2 -2 -1 -2 -1 -1 2 2 0 0 -0 -0 0 -0 -1 -2 -2 -2 -3 -3 -3 -4 -3 -2
3 2 2 2 2 3 -1 -0 2 1 2 2 0 1 0 -0 1 1 2 -1 -3 -3 -1 -1 -3 -3 -0 1 2 2 2 2 -1 -3 -2 -2 -2 -2 -2 -3 -2 -3 -3 -4 -4 -4 -4 -5 -5 -5 -5 -5 -4 -4
2 2 1 1 -0 -0 -2 0 1 0 1 1 1 1 0 0 0 1 -0 -1 0 -2 -1 -2 -1 -2 0 -1 -2 -1 -0 -0 -1 -2 -2 -2 -4 -4 -4 -5 -5 -6 -5 -6 -6 -6 -7 -7 -8 -8 -8 -7 -7 -6
2 2 -1 -0 -3 -1 -2 1 1 2 2 1 1 1 0 0 -0 -1 0 2 0 -1 -2 -1 -1 -1 -2 -3 -4 -4 -3 -4 -5 -5 -5 -5 -5 -5 -6 -7 -8 -9 -9 -9 -9 -9 -10 -10 -10 -10 -10 -10 -9 -8
1 -1 -1 -1 -1 -4 -6 -2 -1 -1 -2 -0 1 1 1 0 -1 -1 -4 -1 -1 -2 -3 -3 -2 -3 -3 -4 -4 -6 -6 -5 -6 -7 -6 -6 -7 -7 -8 -9 -10 -11 -12 -12 -11 -12 -12 -12 -12 -12 -12 -11 -11 -11
1 -1 -1 -4 -2 -5 -6 -6 -3 -2 -2 -0 1 -0 -1 -3 -6 -3 -6 -1 -2 -3 -4 -4 -2 -3 -3 -4 -5 -6 -7 -7 -7 -7 -8 -8 -9 -9 -10 -11 -11 -12 -13 -14 -14 -14 -14 -14 -14 -14 -13 -13 -13 -12
-1 -4 -2 -6 -5 -2 -5 -4 -3 -3 -5 -2 -1 -2 -4 -3 -2 -4 -1 -3 -3 -4 -4 -4 -4 -4 -5 -5 -6 -8 -9 -8 -8 -9 -11 -11 -12 -13 -14 -14 -14 -14 -14 -15 -16 -16 -16 -15 -15 -15 -14 -13 -13 -12
-2 -6 -3 -2 -2 -2 -2 -3 -2 -0 -2 -0 -2 -2 -1 -0 -1 -3 -4 -6 -5 -6 -6 -6 -5 -6 -6 -9 -10 -10 -9 -8 -9 -10 -12 -12 -13 -14 -15 -16 -16 -16 -16 -16 -16 -16 -17 -17 -16 -15 -15 -14 -13 -13
-2 -4 -2 -3 -1 -1 -1 -1 -0 0 0 -1 -1 -1 -1 -3 -4 -6 -6 -7 -7 -7 -8 -8 -7 -8 -9 -10 -10 -10 -10 -10 -11 -11 -12 -13 -14 -14 -15 -15 -15 -16 -16 -16 -16 -16 -16 -16 -16 -15 -14 -14 -14 -14
-1 -2 -2 -1 -2 -3 -1 -1 -1 -1 -1 -2 -4 -3 -6 -8 -10 -9 -9 -8 -8 -8 -10 -10 -11 -10 -11 -12 -12 -12 -12 -12 -11 -19 -20 -22 -16 -15 -16 -16 -16 -16 -17 -16 -16 -16 -16 -15 -15 -15 -15 -15 -16 -16
-2 -2 -4 -4 -3 -2 -2 -3 -2 -3 -3 -5 -6 -7 -8 -10 -11 -10 -9 -9 -10 -12 -12 -12 -12 -11 -12 -12 -13 -14 -14 -14 -14 -15 -20 -21 -16 -16 -16 -16 -17 -17 -17 -17 -17 -16 -16 -16 -16 -16 -16 -16 -17 -18
-3 -2 -1 -2 -2 -3 -3 -3 -2 -2 -2 -4 -7 -8 -10 -12 -11 -12 -11 -11 -11 -12 -12 -12 -13 -13 -13 -13 -14 -14 -14 -15 -15 -15 -16 -16 -16 -17 -17 -17 -17 -18 -18 -18 -17 -17 -17 -17 -18 -18 -18 -19 -19 -20
-2 -3 -2 -2 -4 -4 -9 -6 -5 -10 -5 -3 -8 -10 -14 -17 -17 -13 -12 -12 -12 -13 -14 -14 -14 -14 -14 -15 -15 -15 -15 -16 -16 -16 -16 -17 -17 -17 -17 -17 -18 -18 -18 -18 -18 -18 -18 -19 -19 -19 -20 -20 -21 -21
-13 -14 -13 -14 -11 -9 -10 -13 -14 -12 -10 -7 -12 -14 -16 -15 -14 -13 -13 -13 -13 -13 -14 -14 -14 -15 -15 -15 -15 -16 -16 -16 -16 -17 -17 -17 -17 -17 -18 -18 -18 -19 -19 -19 -19 -19 -19 -20 -20 -21 -21 -21 -21 -22
Height
665 673 682 688 694 700 704 708 711 719 722 725 725 725 728 730 735 738 740 739 740 759 762 761 761 767 774 779 793 793 801 807 821 829 843 847 858 836 833 825 834 841 849 862 868 879 837 802 806 814 803 799 801 807
671 679 685 692 696 701 706 709 715 721 724 726 726 727 729 731 733 735 739 741 741 748 762 762 763 763 763 765 776 789 788 794 800 823 840 839 849 836 838 834 820 829 820 830 829 820 799 798 791 791 792 795 800 802
675 682 689 695 700 704 708 713 719 723 725 727 728 729 731 732 734 735 739 742 744 757 765 764 767 766 765 765 766 781 792 786 793 796 816 826 832 836 836 832 815 811 809 822 814 794 796 795 791 790 791 793 795 797
681 687 693 698 702 707 712 718 723 725 727 729 730 731 733 734 736 737 740 745 746 758 780 775 767 768 769 767 766 766 770 780 789 797 814 822 828 816 829 817 820 808 807 803 812 798 793 790 788 787 789 791 793 796
684 690 696 702 708 712 718 723 726 727 730 731 733 735 737 738 740 741 744 748 749 754 777 781 771 771 770 768 767 768 771 779 791 805 813 814 818 817 823 825 821 800 795 809 797 786 785 784 781 784 788 789 791 794
692 697 704 708 712 718 722 726 728 730 732 735 736 738 740 742 743 744 751 753 753 752 766 784 779 776 774 772 772 774 776 781 787 795 806 805 798 806 814 810 792 782 780 779 781 778 780 780 781 783 786 789 792 796
698 703 707 712 718 722 725 728 731 733 736 739 740 742 744 745 746 750 757 758 755 755 767 786 791 780 778 777 780 782 782 785 787 797 803 802 799 800 810 806 777 776 774 773 774 779 781 781 781 782 786 790 794 799
703 708 713 718 721 725 728 732 735 738 740 743 744 746 748 750 753 756 758 758 758 758 767 791 795 790 782 789 791 789 791 789 793 796 800 799 803 805 800 779 774 771 771 771 773 774 774 776 779 784 787 792 799 805
710 713 717 722 725 728 732 735 738 742 744 746 748 749 752 754 758 761 761 761 760 765 781 791 789 792 787 793 795 795 795 799 800 799 801 800 801 796 778 775 773 772 772 771 775 776 777 779 784 789 794 796 803 811
719 721 722 725 728 731 735 738 742 745 747 749 751 752 764 763 762 763 764 767 770 774 779 790 791 791 789 797 798 801 802 796 797 800 797 799 789 786 782 781 776 774 772 774 778 781 784 787 789 793 800 806 810 814
727 727 729 731 733 736 738 741 745 748 750 751 756 763 764 764 764 769 778 782 782 784 786 790 790 789 792 794 797 805 802 805 795 802 797 798 794 793 788 784 778 775 775 778 778 783 790 796 801 806 809 810 811 811
737 737 737 738 739 741 743 745 748 750 752 755 756 763 765 769 775 779 782 787 787 786 792 790 792 790 793 792 796 802 802 804 797 803 799 794 798 797 795 794 791 789 788 791 793 796 801 803 809 811 812 813 813 813
746 745 745 746 746 747 748 749 750 753 755 758 762 770 769 781 775 773 774 785 787 794 794 795 793 797 795 795 799 801 796 798 803 798 793 799 800 800 800 799 799 798 797 800 803 805 806 807 810 811 812 812 811 810
752 752 752 752 753 753 754 755 755 756 757 765 771 776 778 782 786 787 787 789 797 796 796 797 798 799 801 799 802 795 802 803 795 800 810 804 806 807 807 807 807 809 808 806 806 808 809 810 810 810 810 809 810 809
758 758 757 758 759 758 758 757 757 757 763 774 778 783 789 792 792 794 795 795 797 797 797 798 800 800 800 801 804 806 802 800 803 811 808 812 812 812 811 811 812 812 813 814 814 812 810 809 809 810 810 809 808 806
763 762 763 765 763 761 760 760 760 763 772 779 784 787 791 790 792 793 795 796 797 798 798 799 799 801 803 803 807 805 804 807 809 810 812 814 813 814 814 814 815 815 814 815 814 813 812 810 810 809 808 806 805 804
766 770 771 768 766 764 761 763 766 773 781 782 788 789 790 791 792 794 795 796 797 798 798 800 811 807 807 809 805 803 806 809 810 810 811 811 812 814 814 814 814 813 813 813 812 812 811 810 809 807 805 804 802 801
773 773 773 770 767 766 767 770 775 781 788 790 789 792 793 794 795 797 798 799 800 799 800 802 803 807 809 807 808 808 809 808 808 809 811 811 812 813 813 813 812 812 812 813 812 812 811 809 807 805 803 801 799 797
779 777 775 772 771 772 775 778 780 787 793 793 795 795 797 799 799 800 799 799 799 798 799 806 812 811 809 808 808 808 810 811 811 810 810 813 813 813 813 813 813 813 812 812 811 811 811 809 808 806 803 800 796 793
782 780 778 777 776 777 783 787 785 790 797 797 797 800 801 802 802 800 800 799 801 804 807 810 808 805 806 804 803 805 806 806 808 813 814 813 814 813 813 813 813 812 811 811 811 810 809 807 806 804 802 799 795 790
781 781 780 780 781 782 787 790 790 794 795 797 799 800 804 804 804 803 802 802 809 812 808 805 806 803 801 802 802 803 805 806 808 810 812 815 815 814 815 815 815 815 814 814 814 814 813 811 809 805 802 798 794 790
788 788 787 787 788 789 793 794 796 796 797 800 801 802 805 806 806 806 805 807 806 807 805 805 802 803 804 806 808 808 810 809 811 812 813 815 817 817 818 818 816 817 817 818 818 816 815 814 811 807 802 797 792 787
792 792 793 794 798 798 805 797 799 798 799 802 803 804 806 806 807 807 808 804 807 808 807 806 806 806 809 813 813 813 814 815 817 819 820 821 822 821 821 821 822 822 822 821 820 818 815 812 808 804 799 794 789 784
798 799 800 801 801 810 806 805 804 804 805 804 802 804 804 806 809 811 821 810 809 811 810 809 809 810 813 815 818 821 821 822 823 824 824 823 823 824 825 825 823 823 824 822 819 817 813 809 805 801 797 792 788 783
805 807 807 813 807 815 819 820 810 808 810 803 803 806 807 811 824 817 824 810 812 814 814 812 812 814 817 821 823 825 825 824 824 824 826 826 826 826 826 826 826 824 822 819 816 813 810 806 803 799 795 791 786 780
810 814 811 818 817 812 818 817 812 811 814 807 804 806 811 811 810 819 810 814 816 818 818 817 819 820 822 824 826 827 827 826 826 826 830 829 828 828 829 828 827 824 821 819 816 812 808 805 801 797 793 787 783 778
811 819 809 806 806 805 806 805 802 799 804 799 804 807 803 803 808 815 819 821 820 822 822 822 822 823 825 828 830 830 829 827 827 828 829 830 830 830 830 829 827 824 820 817 814 811 808 804 799 795 791 787 783 779
807 809 808 806 803 800 800 800 798 796 795 797 800 801 802 810 817 824 825 825 824 825 825 825 826 827 828 830 832 832 830 829 829 830 830 831 831 830 829 827 825 821 818 815 812 809 806 802 798 794 790 787 784 780
805 805 805 803 803 804 802 800 799 798 800 800 808 810 819 825 830 828 828 827 827 827 828 829 831 831 832 833 833 833 832 832 831 832 834 833 830 828 826 824 821 818 815 812 809 806 803 800 797 794 791 788 785 781
807 805 809 810 809 806 806 806 804 803 802 805 810 818 825 831 833 831 830 830 830 831 832 833 834 833 833 833 834 834 834 833 833 833 833 831 829 827 824 821 818 815 812 809 805 802 800 797 795 792 789 786 783 781
806 805 803 805 806 807 806 805 804 804 803 807 812 818 827 832 835 835 835 835 835 835 835 835 835 835 835 835 835 834 835 835 834 833 831 830 828 825 822 819 816 813 810 807 804 801 799 796 794 791 789 786 785 783
808 808 808 806 811 809 808 809 809 815 809 806 818 823 830 836 843 838 839 839 837 837 837 837 836 836 836 836 836 836 835 834 832 831 829 827 825 823 821 818 815 812 809 806 803 801 798 796 794 792 790 788 786 784
825 826 827 829 824 819 817 822 827 824 819 816 826 828 833 835 840 840 840 839 839 839 838 838 837 837 837 837 836 835 834 832 831 829 827 826 824 821 819 816 813 810 808 805 802 800 798 796 794 792 790 788 786 784
Wind_Speed
43 40 38 35 33 30 27 25 22 18 16 13 13 14 14 17 18 11 8 5 3 3 1 2 1 5 4 3 5 5 4 4 3 4 3 4 3 5 2 4 6 7 6 4 3 1 8 7 3 8 6 2 9 9
39 38 35 33 31 29 26 24 20 17 16 13 13 13 13 13 13 11 6 11 13 5 3 4 10 9 3 6 6 1 5 4 5 4 1 3 2 2 2 3 2 3 7 5 9 6 4 6 4 5 6 6 7 8
38 35 33 31 29 27 24 22 19 16 15 14 13 13 12 11 9 8 12 7 7 4 4 4 3 7 12 3 4 5 2 5 4 2 4 3 3 4 4 5 3 4 4 2 2 5 8 8 5 3 6 5 5 6
36 35 32 30 28 26 23 20 17 16 14 14 13 13 12 11 11 11 9 7 9 4 4 4 5 4 9 6 3 3 11 8 7 3 3 3 3 4 3 3 4 4 5 5 5 7 5 7 7 5 5 6 7 9
31 31 30 29 27 25 22 19 17 15 14 13 13 13 13 13 14 16 18 14 8 5 4 2 3 8 11 7 11 14 19 6 3 2 2 3 2 3 1 2 3 5 7 4 7 8 5 5 5 7 9 10 10 9
34 31 29 27 25 23 21 18 16 15 14 13 12 12 11 13 12 4 4 8 9 5 4 2 4 5 11 12 14 10 6 3 3 4 3 2 2 3 4 4 7 5 5 6 6 5 4 3 5 6 7 8 7 9
31 29 27 25 24 22 20 18 16 16 14 13 12 11 8 7 4 7 4 2 5 4 3 3 3 4 5 5 4 3 6 2 2 2 2 3 1 3 3 5 7 8 8 7 4 6 1 4 5 7 7 10 18 18
30 27 25 23 22 20 19 18 17 16 15 14 14 16 17 16 12 8 10 8 6 9 4 3 3 3 7 2 2 4 2 2 4 2 1 2 1 2 3 9 6 7 5 2 6 3 3 6 7 8 18 19 13 10
28 26 24 21 19 19 18 17 18 16 15 15 14 12 6 5 4 2 5 8 12 7 3 2 4 3 3 2 1 3 2 2 2 1 1 3 1 4 4 4 5 4 4 3 4 3 6 8 11 12 12 12 10 5
22 21 21 20 18 16 17 16 16 16 14 12 5 5 3 4 3 3 2 4 5 3 3 2 1 1 2 1 2 2 2 1 1 3 1 2 3 4 3 7 7 7 5 7 5 5 8 10 11 13 10 6 5 4
27 26 22 18 17 15 16 18 17 15 11 3 3 2 2 3 2 4 3 3 1 3 3 1 2 3 2 3 2 1 1 0 2 3 2 2 2 4 10 9 8 8 10 10 13 17 16 14 11 6 5 7 2 4
30 28 25 21 19 17 17 20 19 7 5 7 12 7 3 4 3 5 2 1 2 2 2 1 0 1 0 1 3 0 2 1 5 2 1 2 1 5 9 10 12 16 21 19 24 20 17 15 11 6 3 0 3 3
24 25 26 26 23 20 15 10 10 20 16 6 5 4 2 3 2 4 6 1 2 1 2 2 1 1 2 3 3 2 3 3 1 2 2 1 3 6 6 5 9 13 20 18 15 14 13 9 6 4 1 2 5 7
22 20 20 20 19 18 15 11 9 6 4 3 3 3 1 2 2 1 2 2 1 1 1 1 2 2 1 2 1 2 0 0 2 1 2 2 5 5 7 6 6 7 9 11 9 9 6 5 3 3 4 5 7 9
21 22 21 22 17 14 11 9 7 6 5 3 3 2 2 2 2 2 1 2 1 1 1 2 2 1 1 2 1 2 1 1 2 1 2 2 4 5 4 6 7 7 8 6 1 3 3 3 2 4 6 7 8 11
8 12 22 16 17 15 9 6 6 4 4 3 3 3 1 3 2 2 1 1 1 1 1 1 2 2 1 1 2 1 2 1 1 1 1 3 3 4 4 4 4 5 2 2 2 3 4 6 6 7 9 10 12 13
14 7 11 13 15 12 9 4 5 5 3 3 2 2 2 3 2 1 1 1 1 1 1 1 3 2 2 2 1 1 2 1 1 2 1 1 1 3 5 4 2 1 2 5 6 6 6 7 8 8 9 14 16 17
13 11 10 14 15 7 5 6 4 3 4 2 2 1 2 2 2 2 1 2 2 2 2 2 3 2 2 2 1 3 2 3 2 1 2 2 3 4 2 1 3 3 4 5 6 7 8 9 11 13 16 19 20 20
15 11 11 14 14 4 4 5 5 3 2 2 2 2 2 2 2 1 1 3 0 1 3 2 3 2 2 2 2 1 1 2 2 3 2 2 2 0 2 2 3 4 6 7 8 12 13 13 14 17 20 22 20 21
10 13 10 9 11 4 4 3 3 3 2 1 2 2 2 1 1 1 2 2 2 2 2 1 3 3 3 2 2 2 2 4 3 2 1 1 4 8 11 11 12 11 13 15 15 18 19 19 20 22 22 22 18 19
11 18 13 9 7 9 3 2 3 1 2 2 1 2 2 1 1 1 1 1 3 0 1 2 2 2 2 7 9 9 6 4 2 3 3 2 11 15 15 16 14 16 15 14 12 14 15 13 17 19 20 19 21 23
8 11 7 8 7 6 4 8 1 1 2 1 2 2 2 1 0 1 1 2 1 2 1 1 2 1 3 4 9 11 9 16 16 16 15 10 4 6 9 14 14 12 12 13 13 12 13 15 19 22 20 22 23 23
9 8 5 6 4 4 3 6 2 1 1 1 1 2 1 1 1 2 1 2 0 3 4 4 7 14 16 14 17 22 18 16 14 13 13 11 10 11 11 12 12 12 10 12 13 13 16 20 22 24 25 23 23 23
7 4 4 3 2 2 3 2 2 1 2 1 2 1 2 2 1 1 2 1 2 4 5 6 7 7 11 12 10 13 14 12 11 13 12 8 9 11 11 11 13 15 16 15 14 17 21 23 25 23 24 23 23 23
2 3 2 3 2 4 3 4 2 2 2 2 2 2 2 2 2 2 2 1 2 2 4 10 11 10 6 5 8 7 12 11 7 9 12 11 11 10 11 11 10 12 21 22 21 19 21 25 24 23 25 23 26 25
2 3 3 4 2 1 3 2 3 5 3 3 3 1 1 2 2 3 1 2 2 2 3 5 4 4 6 8 6 7 9 10 6 10 8 12 15 15 11 9 10 12 21 21 21 21 22 24 24 26 25 29 28 27
2 3 3 3 1 1 1 1 1 2 3 3 2 2 2 3 2 2 1 6 3 7 10 11 11 8 8 10 10 10 10 7 4 10 13 12 14 16 17 14 13 16 20 18 17 17 22 25 25 25 26 28 18 17
3 2 2 2 2 2 2 1 1 2 2 1 3 2 3 3 2 2 3 7 11 12 15 16 14 13 15 13 11 10 14 9 14 10 6 7 10 8 18 18 19 19 17 16 16 18 20 21 21 23 23 16 15 16
1 2 1 2 2 2 1 1 1 1 2 1 3 2 2 3 4 5 6 7 7 10 14 16 15 12 12 11 11 12 12 13 10 5 3 3 8 9 19 21 22 20 19 20 18 18 17 15 16 15 13 12 13 13
2 1 2 1 1 1 1 2 2 2 4 3 4 3 3 3 7 7 7 8 11 14 14 13 11 9 10 9 8 10 9 10 12 10 1 3 9 15 19 22 22 21 21 20 20 20 16 15 16 16 15 15 14 13
1 2 1 1 1 1 1 2 2 1 1 3 4 3 3 3 4 10 11 11 10 8 7 9 10 9 7 8 8 5 3 5 10 9 8 9 11 15 18 20 20 20 19 18 20 15 13 14 15 14 13 12 12 11
3 3 2 2 2 2 5 3 2 2 3 1 2 3 2 3 2 3 3 4 5 10 9 7 6 5 5 5 5 5 6 9 9 11 12 10 11 15 17 19 19 18 17 18 14 11 11 12 13 12 11 10 10 11
3 3 3 2 4 5 3 3 5 4 3 2 2 2 1 3 2 2 4 6 6 8 8 7 7 5 3 4 6 7 9 10 10 10 9 10 13 14 16 18 17 15 15 15 13 11 10 10 10 9 9 9 9 10
Wind_Direction
154 154 155 150 149 147 141 138 132 133 128 121 116 121 128 137 150 171 104 82 101 100 322 9 61 133 114 114 135 191 66 342 45 73 123 197 154 220 132 186 180 171 156 198 102 57 276 165 85 168 207 206 181 183
153 153 150 149 146 142 140 133 132 130 124 118 109 110 119 135 140 137 99 87 80 83 150 73 75 64 54 161 128 40 159 164 165 92 127 127 157 167 147 233 113 240 190 183 186 214 246 225 215 236 173 158 196 179
151 149 148 147 143 139 135 133 134 130 122 115 105 101 106 116 133 122 111 102 82 84 8 48 8 31 44 75 161 119 297 153 135 129 144 152 164 134 170 237 198 245 160 213 93 255 233 244 263 228 194 204 154 144
150 149 147 145 140 138 134 135 134 126 118 110 102 97 97 102 111 125 103 77 82 97 109 281 3 46 17 50 127 128 131 92 96 72 106 139 156 187 208 207 173 203 141 206 257 281 284 262 236 209 182 155 140 146
145 145 146 144 142 138 138 136 131 123 115 109 104 103 101 105 107 107 91 61 66 115 157 244 330 15 21 56 96 126 119 107 112 82 104 207 160 116 112 71 259 191 198 168 236 225 199 231 209 175 162 168 157 152
147 146 147 145 142 143 142 136 129 121 114 110 107 109 122 129 124 100 42 40 46 73 96 108 316 352 24 79 83 66 69 91 101 136 196 234 250 116 164 210 252 238 228 205 241 221 214 302 187 155 160 153 144 132
142 143 143 144 146 144 140 135 128 120 114 108 104 101 116 141 99 71 129 17 36 67 83 59 347 329 353 35 41 23 32 55 99 127 187 176 197 121 164 223 244 246 248 245 194 124 124 194 194 167 130 108 108 104
141 142 144 145 146 146 142 137 131 123 115 112 107 104 103 100 92 68 55 61 62 88 63 111 270 9 11 21 28 355 36 19 26 112 86 189 52 123 245 242 258 258 298 280 192 248 236 138 132 114 121 115 105 100
99 120 141 146 145 144 144 141 134 125 119 117 112 107 90 48 48 51 64 77 58 70 115 100 148 217 10 50 37 24 31 38 316 133 239 114 196 221 258 324 306 295 224 260 128 108 116 115 108 111 102 84 107 160
85 95 102 112 128 147 158 150 143 134 130 122 88 52 30 352 77 70 40 27 19 348 40 101 93 131 70 22 18 61 1 160 222 246 89 176 255 296 339 299 260 273 290 150 119 134 110 110 105 98 106 148 140 140
83 82 89 101 113 123 142 152 145 137 135 66 64 85 76 34 75 33 61 66 22 30 14 66 157 136 349 112 170 114 169 328 238 257 194 279 287 311 341 358 22 53 68 59 78 84 86 88 90 102 84 78 146 220
80 81 82 86 93 104 124 143 148 138 110 97 110 100 55 36 47 87 81 31 58 183 348 75 317 70 222 106 99 220 164 121 244 151 146 260 342 29 39 41 56 70 75 73 74 78 81 90 90 101 124 192 284 304
76 76 77 77 80 85 95 120 130 125 116 82 59 56 36 341 83 170 162 188 131 360 354 15 51 6 6 37 72 103 187 223 85 194 221 62 43 51 44 71 73 83 95 98 101 100 98 97 85 72 42 325 336 330
71 73 71 66 65 67 74 89 103 97 79 65 67 82 46 104 54 88 72 89 115 104 68 51 64 63 345 58 73 188 127 52 205 218 262 12 21 67 53 46 53 25 22 104 127 121 124 122 86 42 10 348 323 306
69 66 66 54 46 50 56 67 81 70 66 79 75 91 83 112 75 72 77 109 41 88 66 69 65 68 23 86 27 83 51 284 58 80 8 18 39 78 43 56 47 44 36 40 82 68 62 51 13 338 349 337 327 325
63 50 37 28 26 30 37 70 61 68 61 63 57 98 105 110 95 112 106 73 165 123 99 73 111 86 59 106 74 242 118 56 124 147 187 137 106 82 73 110 217 245 249 268 349 8 356 0 353 340 337 348 353 342
66 50 21 11 9 19 37 65 44 49 99 71 55 39 90 74 87 110 120 161 142 79 80 98 83 184 61 79 119 45 126 109 32 329 335 22 69 167 195 204 232 279 22 8 356 356 346 343 333 329 337 339 335 327
52 35 17 8 9 28 43 40 76 74 64 55 86 60 60 46 86 37 47 6 80 155 130 170 129 81 122 140 171 184 184 197 209 257 236 220 192 190 228 79 70 33 357 343 337 331 329 333 328 321 324 325 321 317
45 34 21 12 12 49 48 31 42 82 58 76 69 45 63 83 55 44 336 348 193 123 104 50 81 152 208 216 188 187 208 189 177 173 153 146 197 48 63 47 6 357 350 351 350 347 349 351 349 349 346 341 322 319
36 34 34 30 24 46 45 359 48 90 101 198 76 60 72 55 343 16 333 351 33 61 48 106 196 208 180 227 184 165 171 167 128 85 28 6 75 55 53 44 38 36 35 21 16 15 7 360 356 348 339 332 317 306
26 16 11 37 30 51 103 5 55 80 137 83 109 59 57 12 345 286 253 21 48 108 281 221 228 257 129 83 93 106 91 78 86 146 172 91 66 73 53 40 34 33 36 27 9 357 359 355 347 344 337 331 328 325
20 9 20 22 38 9 60 17 46 331 57 120 98 109 116 142 152 294 349 23 243 271 259 270 329 92 76 49 52 60 86 97 86 74 72 84 43 25 24 24 29 32 32 24 5 355 347 342 340 339 335 328 330 325
3 11 31 23 54 47 292 355 55 32 130 210 75 80 95 78 51 36 294 247 140 20 330 0 51 92 96 79 73 63 70 72 66 56 60 73 68 59 62 60 52 49 28 7 359 350 342 341 339 339 337 334 332 329
350 28 18 22 44 269 355 20 358 33 38 111 139 202 181 137 70 60 241 212 89 18 26 15 122 99 80 69 65 50 36 60 84 63 52 68 73 61 64 63 50 39 19 1 355 342 346 343 343 338 337 331 329 325
346 336 358 322 351 51 25 348 334 68 209 206 156 233 181 94 115 205 230 155 59 42 48 56 60 75 99 90 88 66 35 40 58 81 49 68 75 67 50 44 35 18 6 1 353 342 340 341 340 334 331 327 323 323
232 257 181 201 269 146 212 190 220 207 175 191 209 139 81 121 145 239 79 38 65 34 41 63 81 92 74 65 77 44 17 25 73 95 76 70 65 63 52 30 0 348 356 353 349 345 338 337 333 334 327 328 326 320
262 284 239 217 204 269 287 250 221 183 183 198 177 141 142 178 175 87 88 12 50 57 75 83 78 79 102 97 82 60 35 27 102 117 114 81 63 47 40 32 4 345 345 346 346 346 339 334 332 332 326 333 350 6
226 165 187 260 257 218 215 216 225 221 229 133 124 144 160 156 118 35 33 61 104 100 91 87 90 100 102 96 81 57 46 91 130 118 84 64 33 19 13 6 358 354 353 354 348 347 343 336 333 333 337 326 353 360
288 322 21 352 348 14 11 312 301 38 354 117 110 103 87 61 6 17 33 79 107 106 95 91 93 102 99 89 72 58 51 50 62 58 30 316 337 350 353 351 351 353 350 346 349 353 352 350 353 355 352 355 354 355
311 331 84 18 68 344 13 341 8 334 36 88 103 98 79 66 26 62 88 100 97 94 94 90 87 82 79 84 82 60 56 42 36 30 270 287 330 336 342 345 347 347 346 345 347 347 349 354 351 349 350 354 1 6
275 344 6 68 56 26 298 304 257 223 21 85 51 78 102 133 79 64 83 92 103 106 93 74 65 56 59 53 40 22 342 360 355 346 337 329 329 336 341 342 341 339 341 343 344 345 348 354 355 355 358 4 7 10
8 13 355 333 326 342 19 19 349 36 350 128 82 91 67 60 43 24 38 31 75 72 62 50 47 46 25 15 9 5 345 339 333 333 335 330 331 336 337 338 336 337 337 340 344 344 348 351 354 358 1 5 6 7
22 26 34 32 354 349 343 62 21 359 23 52 29 95 97 119 144 154 76 66 69 59 43 30 15 12 16 346 333 338 340 335 328 331 330 330 332 331 335 337 336 334 335 344 347 344 346 350 354 357 359 0 0 359